User: anonymous   Login
Location: Dunedin
(45.8670°S, 170.5000°E)
Time: 01:11:40
(UTC+13:00)
Language:

Lacrosse 5 - Orbit

View from above orbital plane
View from above orbital plane
View from above satellite
View from above satellite

Ground track
Ground track

The orbit data is extracted from the following two-line orbital elements,

1 28646U 05016A   19289.78609154 0.00000000  00000-0  00000-0 0    00
2 28646  57.0151 188.8279 0005967 107.4825 252.5175 14.51896001    06
Epoch (UTC): 16 October 2019 18:51:58
Eccentricity: 0.0005967
inclination: 57.0151°
perigee height: 715 km
apogee height: 724 km
right ascension of ascending node: 188.8279°
argument of perigee: 107.4825°
revolutions per day: 14.51896001
mean anomaly at epoch: 252.5175°
orbit number at epoch: 0

The dashed part of the orbit path shows where the satellite is in the earth's shadow,  

DLR